EHI
0 0 0 0 0 0 0 0 0 0 0 0 0 0 0 0 0 0 0 0 2 9 16 20 21 19 15 11 8 6 2 1 2 2 2 1 0 0 0 0 0 0 0 0 0 0 0 0 0
0 0 0 0 0 0 0 0 0 0 0 0 0 0 0 0 0 0 0 0 1 6 13 19 22 21 17 11 7 4 2 1 1 1 1 1 0 0 0 0 0 0 0 0 0 0 0 0 0
0 0 0 0 0 0 0 0 0 0 0 0 0 0 0 0 0 0 0 0 0 3 10 19 26 25 20 13 7 3 2 1 0 0 0 0 0 0 0 0 0 0 0 0 1 0 0 0 0
0 0 0 0 0 0 0 0 0 0 0 0 0 0 0 0 0 0 0 0 0 3 10 20 28 29 22 14 7 3 1 0 0 0 0 0 0 0 0 0 0 0 0 0 0 0 0 0 0
0 0 0 0 0 0 0 0 0 0 0 0 0 0 1 2 1 1 1 1 1 4 11 20 28 29 22 13 8 3 1 0 1 1 1 0 0 0 0 0 0 0 0 0 0 0 0 0 0
0 0 0 0 0 0 0 0 0 0 0 0 0 1 2 3 3 2 3 4 5 9 15 20 23 23 18 12 7 3 1 1 2 2 1 1 0 0 0 0 0 0 0 0 0 0 1 0 0
0 0 0 0 0 0 0 0 0 0 0 0 0 1 2 4 4 4 6 9 12 15 19 20 17 13 11 9 5 2 1 2 3 3 2 1 1 0 0 0 0 0 0 0 0 0 0 0 0
0 0 0 0 0 0 0 0 0 0 0 0 0 1 2 3 4 5 9 14 17 19 20 18 14 8 5 4 2 0 1 2 3 2 2 1 1 0 0 0 0 0 0 0 0 0 0 0 0
0 0 0 0 0 0 0 0 0 0 0 0 0 1 3 3 4 7 11 15 17 18 18 18 16 11 6 2 0 0 0 1 2 1 1 1 0 0 0 0 0 0 0 0 0 0 0 0 0
0 0 0 0 0 0 0 0 0 0 0 0 1 2 3 3 4 7 11 13 14 15 16 18 18 17 12 6 4 3 2 1 1 0 0 0 0 0 0 0 0 0 0 0 0 0 0 0 0
0 0 0 0 0 0 0 0 0 0 0 0 1 2 2 2 3 5 8 10 11 12 15 18 21 20 17 13 10 8 6 4 1 0 0 0 0 0 0 0 0 0 0 0 0 0 0 0 0
0 0 0 0 0 0 0 0 0 0 0 0 0 0 0 1 2 3 6 8 9 10 13 18 23 22 19 17 15 11 8 5 2 0 0 0 1 1 1 0 0 0 0 0 0 0 0 0 0
0 0 0 0 0 0 0 0 0 0 0 0 0 0 0 0 1 1 3 6 8 9 11 15 19 19 17 17 16 12 8 5 3 1 0 0 1 2 2 1 0 1 1 1 1 0 0 0 0
0 0 0 0 0 0 0 0 0 0 0 0 0 0 0 0 0 0 1 2 4 6 7 9 12 12 12 14 15 12 9 6 3 1 0 0 0 1 2 1 1 1 2 2 2 1 0 0 0
0 0 0 0 0 0 0 0 0 0 0 0 0 0 0 0 0 0 0 0 1 2 3 5 6 6 7 9 11 10 8 6 4 1 0 0 0 0 1 2 2 1 1 2 2 1 0 0 0
0 0 0 0 0 0 0 0 0 0 0 0 0 0 0 0 0 0 0 0 0 0 0 2 3 3 5 7 8 7 6 4 4 2 1 0 0 0 1 2 3 2 1 1 1 0 0 0 0
0 0 0 0 0 0 0 0 0 0 0 0 0 0 0 0 0 0 0 0 0 0 0 1 2 2 3 5 6 5 3 2 3 3 1 0 0 0 0 1 2 1 1 0 0 0 0 0 0
0 0 0 0 0 0 0 0 0 0 0 0 0 0 0 0 0 0 0 0 0 0 0 0 1 1 1 3 4 3 2 1 1 2 1 0 0 0 0 0 0 0 0 0 0 0 0 0 0
0 0 0 0 0 0 0 0 0 0 0 0 0 0 0 0 0 0 0 0 0 0 0 0 0 1 1 2 2 1 1 0 0 0 0 0 0 0 0 0 0 0 0 0 0 0 0 0 0
0 0 0 0 0 0 0 0 0 0 0 0 0 0 0 0 0 0 0 0 0 0 0 0 0 1 2 2 2 1 0 0 0 0 0 0 0 0 0 0 0 0 0 0 0 0 0 0 0
0 0 0 0 0 0 0 0 0 0 0 0 0 0 0 0 0 0 0 0 0 0 0 0 0 1 1 3 2 1 0 0 0 0 0 0 0 0 0 0 0 0 0 0 0 0 0 0 0
0 0 0 0 0 0 0 0 0 0 0 0 0 0 0 0 0 0 0 0 0 0 0 0 0 1 2 3 2 1 0 0 0 0 0 0 0 0 0 0 0 0 0 0 0 0 0 0 0
0 0 0 0 0 0 0 0 0 0 0 0 0 0 0 0 0 0 0 0 0 0 0 0 0 1 2 3 1 0 0 0 0 0 0 0 0 0 0 0 0 0 0 0 0 0 0 0 0
0 0 0 0 0 0 0 0 0 0 0 0 0 0 0 0 0 0 0 0 0 0 0 0 0 1 1 1 0 0 0 0 0 0 0 0 0 0 0 0 0 0 0 0 0 0 0 0 0
0 0 0 0 0 0 0 0 0 0 0 0 0 0 0 0 0 0 0 0 0 0 0 0 0 0 0 0 0 0 0 0 0 0 0 0 0 0 0 0 0 0 0 0 0 0 0 0 0
0 0 0 0 0 0 0 0 0 0 0 0 0 0 0 0 0 0 0 0 0 0 0 0 0 0 0 0 0 0 0 0 0 0 0 0 0 0 0 0 0 0 0 0 0 0 0 0 0
0 0 0 0 0 0 0 0 0 0 0 0 0 0 0 0 0 0 0 0 0 0 0 0 0 0 0 0 0 0 0 0 0 0 0 0 0 0 0 0 0 0 0 0 0 0 0 0 0
0 0 0 0 0 0 0 0 0 0 0 0 0 0 0 0 0 0 0 0 0 0 0 0 0 0 0 0 0 0 0 0 0 0 0 0 0 0 0 0 0 0 0 0 0 0 0 0 0
0 0 0 0 0 0 0 0 0 0 0 0 0 0 0 0 0 0 0 0 0 0 0 0 0 0 0 0 0 0 0 0 0 0 0 0 0 0 0 0 0 0 0 0 0 0 0 0 0
0 0 0 0 0 0 0 0 0 0 0 0 0 0 0 0 0 0 0 0 0 0 0 0 0 0 0 0 0 0 0 0 0 0 0 0 0 0 0 0 0 0 0 0 0 0 0 0 0
Wind_Speed
2 1 2 3 5 6 11 9 5 5 5 4 4 5 6 5 3 2 5 9 12 14 15 15 13 13 13 13 12 12 11 11 11 12 12 12 12 12 12 11 11 12 12 13 13 13 13 14 13
2 2 3 4 7 10 9 10 10 8 3 3 5 5 5 5 1 3 5 10 13 14 14 14 14 13 13 13 12 12 11 11 11 11 11 12 12 12 11 11 11 12 12 12 12 13 13 13 12
3 2 4 5 8 11 8 6 8 5 4 4 5 4 4 2 3 4 6 12 13 14 13 14 14 13 13 13 12 12 11 11 11 10 11 11 11 11 11 11 11 11 11 12 12 13 12 12 12
4 4 4 7 13 11 7 3 4 5 5 6 5 4 3 1 1 4 9 13 14 13 13 14 13 13 13 12 12 12 11 11 11 10 10 11 11 11 11 11 11 11 10 11 12 12 12 11 12
3 4 7 10 13 9 7 5 4 6 6 6 6 5 3 3 2 6 11 13 13 13 12 13 13 13 13 12 12 11 11 11 11 10 10 11 11 11 11 11 10 10 10 11 11 12 11 11 11
5 5 9 13 14 9 8 8 7 8 7 5 6 5 3 4 5 8 11 12 12 12 11 12 12 11 11 11 11 11 11 11 10 10 10 10 10 11 11 11 10 10 11 11 11 11 11 11 11
6 6 10 11 11 10 7 7 9 9 9 8 5 5 4 5 6 9 11 11 11 11 11 11 11 11 10 10 10 10 9 10 10 10 10 9 9 9 10 10 10 10 10 10 10 11 11 11 10
4 5 9 10 11 10 5 6 5 9 7 3 5 6 4 6 8 9 10 10 10 10 10 10 11 10 10 10 9 9 9 9 9 9 9 9 9 9 9 9 9 9 10 10 10 10 10 10 10
5 8 12 11 9 6 5 6 4 3 4 4 4 3 1 8 10 11 10 10 9 9 9 10 10 10 9 9 9 9 9 9 9 9 9 8 8 8 7 8 8 8 9 9 10 10 10 9 9
8 11 13 7 6 4 5 6 4 5 7 6 5 3 4 8 11 12 12 13 12 12 10 9 10 9 9 7 8 7 7 8 7 7 8 6 6 5 6 8 8 8 8 9 9 10 9 6 6
9 11 9 7 6 5 5 5 5 7 8 8 7 6 7 9 10 11 12 12 12 11 10 9 9 9 9 6 6 5 4 5 6 8 7 6 5 5 5 5 6 7 7 7 8 7 5 4 4
9 11 9 7 5 5 6 5 6 10 8 3 3 4 7 8 9 9 10 9 9 10 9 9 9 8 9 7 6 6 5 5 5 6 7 6 4 4 4 4 4 5 4 5 5 4 6 5 5
13 10 9 8 7 7 7 8 8 10 7 5 3 5 7 8 8 8 7 7 7 8 9 9 8 8 8 7 6 6 6 6 6 5 6 6 5 5 5 4 4 4 4 5 5 5 6 5 5
8 8 8 9 10 8 9 10 10 10 6 5 5 7 7 8 8 7 7 7 7 8 8 8 8 8 8 7 6 6 6 5 6 6 7 7 5 5 5 5 4 4 4 4 4 5 5 4 4
5 8 9 10 9 7 7 11 12 9 6 5 6 6 7 7 7 7 8 8 8 8 8 8 8 8 8 8 7 5 5 6 5 5 7 7 6 6 5 5 5 4 5 5 4 5 4 4 4
7 9 10 7 7 7 9 13 6 4 6 6 6 6 6 6 6 6 6 7 7 7 7 8 6 8 8 7 7 5 5 5 5 5 6 7 7 7 6 5 5 5 5 5 5 5 4 4 4
9 11 12 7 7 6 10 10 3 1 4 5 4 4 4 4 4 4 4 5 6 7 7 7 7 8 7 7 6 5 5 5 4 5 5 6 7 7 6 5 5 6 5 5 5 5 5 5 4
9 11 11 10 4 7 10 10 4 3 3 3 3 3 3 3 4 4 3 4 5 6 6 7 7 7 7 5 5 4 5 4 4 4 5 7 6 7 6 5 6 6 5 5 5 6 5 4 4
8 10 11 9 5 7 11 11 7 5 4 4 3 3 3 3 4 3 2 2 3 4 5 6 7 7 6 5 5 5 5 5 5 4 6 7 7 7 6 5 6 6 6 6 7 6 6 5 4
8 10 10 7 4 6 9 10 7 4 4 3 3 3 4 4 3 2 2 2 3 4 4 5 6 7 7 6 6 5 5 4 4 4 5 7 7 7 6 7 6 6 6 7 8 7 5 4 4
8 9 8 6 4 6 7 9 7 4 2 1 2 3 4 4 4 3 2 2 3 3 4 4 6 6 7 7 5 4 4 4 4 5 5 6 7 7 7 7 6 6 6 7 8 8 7 5 4
7 5 7 8 7 5 7 7 5 3 1 2 3 4 4 4 4 4 3 3 3 3 3 4 4 5 6 7 7 8 7 6 6 5 5 6 7 7 7 7 7 6 5 7 7 7 6 7 5
5 5 7 8 8 7 8 8 4 1 2 4 5 6 6 5 5 4 4 3 3 2 2 3 3 4 5 6 8 8 7 6 5 6 7 6 6 7 7 7 6 7 5 6 7 7 7 6 6
4 3 4 5 6 9 9 9 3 1 3 5 6 7 7 6 6 5 5 4 3 2 1 2 3 3 4 5 6 8 8 8 7 7 7 6 5 5 7 7 6 6 6 7 7 7 8 6 7
3 2 3 5 7 7 4 6 1 5 6 6 7 7 7 7 7 6 6 5 5 4 2 1 2 3 3 4 5 6 7 8 9 8 7 6 5 5 7 7 7 6 6 6 6 7 7 7 7
3 3 4 5 6 4 4 5 4 5 6 7 7 6 7 8 7 7 6 6 5 5 4 2 2 2 2 3 4 4 5 5 5 7 6 7 5 6 7 8 7 7 7 7 7 6 6 6 6
3 2 5 6 5 4 4 3 3 6 8 10 9 8 9 8 8 7 7 6 5 5 5 4 2 1 1 2 3 3 4 5 5 5 5 5 5 5 8 8 8 7 7 7 7 6 6 6 6
5 4 2 3 4 5 3 2 2 7 10 11 11 10 10 9 8 8 7 7 6 5 5 5 3 2 2 2 2 2 3 4 4 5 6 5 6 6 7 8 8 7 7 7 7 6 6 7 6
5 4 4 4 4 4 3 1 4 4 7 8 9 10 10 9 8 7 7 7 7 6 5 5 5 3 2 1 2 2 2 3 4 5 5 5 5 6 7 7 7 7 7 8 7 7 7 7 6
4 5 5 3 3 4 3 1 5 6 7 8 9 10 10 10 9 8 8 7 7 7 7 6 5 4 3 2 1 2 2 2 3 4 5 5 5 5 6 6 7 7 7 7 8 8 7 8 8
Wind_Direction
130 165 215 213 209 221 230 219 214 191 198 203 197 209 219 210 219 58 85 151 148 151 152 152 148 145 143 140 137 136 135 133 133 133 132 130 127 125 122 120 117 114 111 109 106 106 105 102 99
154 186 203 213 225 221 221 218 211 208 170 162 194 214 215 214 7 83 136 152 153 152 153 153 146 145 143 142 141 139 137 134 133 134 134 132 130 127 124 121 117 114 111 110 109 109 107 105 102
151 221 213 209 225 228 220 201 214 204 200 197 189 212 227 197 138 135 139 153 154 152 153 146 146 145 145 143 143 141 140 137 135 134 134 133 132 130 127 123 118 115 113 112 112 111 109 108 105
188 185 210 229 227 229 239 178 175 185 192 210 206 193 188 59 112 126 144 155 154 153 153 146 149 147 146 146 145 144 142 140 137 136 133 130 129 128 125 122 118 115 115 117 116 115 114 111 108
212 208 210 227 233 226 231 232 208 206 188 189 206 213 185 125 119 140 153 158 155 153 151 149 152 150 150 150 148 147 145 143 139 138 136 133 130 128 127 123 122 121 121 121 121 121 120 115 111
194 215 223 229 227 224 228 223 219 223 215 193 203 214 180 129 150 153 157 158 155 152 149 149 147 145 148 150 149 149 149 148 143 140 138 133 130 130 130 129 128 127 124 124 124 124 120 117 113
214 216 235 239 236 230 221 205 220 220 217 205 200 206 165 155 153 155 157 156 154 153 154 153 156 153 148 145 147 147 146 143 139 136 131 126 124 127 129 128 130 130 128 127 125 124 121 118 113
230 228 234 233 234 234 201 193 224 227 229 209 211 219 193 153 151 155 156 156 155 157 159 158 160 160 159 154 143 138 135 132 129 125 119 116 117 122 125 131 127 129 129 126 123 121 121 117 113
213 229 231 225 226 225 185 199 198 221 213 196 218 260 63 135 153 157 160 163 163 164 165 164 162 160 160 159 149 145 137 132 135 132 126 138 143 139 139 124 123 126 125 125 123 120 119 117 112
210 230 233 232 232 223 192 212 201 200 212 214 209 202 154 158 168 172 174 174 175 174 172 171 167 163 162 161 160 164 160 157 162 156 156 157 149 137 130 113 116 122 123 125 123 123 128 139 129
214 236 241 234 235 247 228 229 221 223 231 230 215 185 167 173 181 184 186 184 181 177 174 174 171 168 167 166 168 167 166 166 168 164 162 155 146 143 144 142 139 140 146 142 140 148 142 136 126
227 240 243 240 233 238 243 236 232 236 248 262 217 173 172 181 187 192 192 190 185 182 180 177 174 172 174 171 172 171 169 173 170 169 165 162 158 160 156 158 157 157 157 151 153 148 142 139 137
231 240 240 245 242 246 251 246 252 251 258 260 228 198 195 194 194 196 196 194 190 188 186 183 180 177 175 175 176 176 176 178 171 170 173 172 168 166 161 161 162 162 158 158 154 153 146 143 139
236 242 246 248 247 248 246 255 252 253 254 236 215 211 210 206 203 198 198 199 198 196 192 187 184 184 179 180 180 179 178 176 175 174 176 178 176 172 168 166 164 164 163 158 159 154 149 144 142
235 244 250 240 235 237 243 252 243 251 235 225 220 217 216 218 213 211 208 206 204 202 196 191 186 186 183 182 181 178 177 177 178 178 179 181 180 179 176 170 170 167 163 159 155 152 150 141 142
224 234 238 223 220 220 222 247 249 245 225 227 228 225 223 223 225 228 223 216 209 205 199 193 188 188 187 184 181 177 177 178 178 176 179 182 182 183 178 173 174 168 166 164 159 159 154 152 152
215 232 238 237 219 221 224 253 274 262 228 234 236 234 233 237 242 243 235 224 214 209 202 192 190 191 188 182 179 176 173 176 177 175 177 180 183 185 181 177 171 170 171 170 166 166 164 157 151
224 233 240 239 225 229 235 247 258 273 257 251 247 254 257 255 260 259 245 232 219 212 206 197 191 190 186 177 174 170 170 175 177 179 181 179 180 185 183 178 174 172 172 172 170 164 165 158 150
251 243 247 249 247 239 241 252 257 265 268 267 269 272 280 279 281 279 259 243 224 211 206 202 196 187 181 178 180 179 180 179 180 183 182 183 181 181 184 181 176 179 180 178 173 164 163 157 154
242 243 251 256 253 251 253 258 261 265 261 273 282 292 299 305 307 301 277 238 224 215 211 205 202 194 190 190 189 190 180 184 183 180 185 185 182 182 185 182 179 181 179 178 177 173 170 163 182
241 242 249 257 275 243 252 254 233 220 212 288 299 297 303 305 305 305 286 257 234 224 218 213 206 199 197 190 181 171 170 171 179 183 185 190 188 184 183 183 181 183 182 182 183 184 185 174 181
255 259 263 254 244 241 226 249 216 208 221 349 345 344 336 332 325 319 311 288 258 244 229 217 210 200 195 189 184 182 186 187 189 184 183 185 187 185 181 183 183 182 186 184 185 189 192 185 181
280 288 262 252 247 253 233 239 219 157 273 345 353 352 346 339 334 330 327 312 296 278 243 220 207 199 194 193 191 192 195 192 183 180 182 183 185 185 182 183 182 181 185 187 187 190 195 197 193
297 269 249 234 232 237 228 227 227 81 320 332 345 349 349 344 338 338 342 341 337 333 304 239 207 204 199 193 197 198 196 189 181 181 183 185 183 185 185 185 184 184 185 186 188 192 198 201 199
328 251 224 208 214 229 202 218 124 36 11 349 344 350 352 352 348 348 350 349 347 347 334 287 233 215 208 201 205 206 200 194 189 185 189 187 186 188 189 186 187 187 188 187 187 192 199 203 201
298 269 261 246 236 245 209 203 103 47 19 5 359 359 1 360 354 350 346 343 343 344 342 329 275 237 217 211 212 211 203 197 194 194 191 193 193 193 191 190 190 188 186 184 188 194 197 201 205
313 289 296 281 271 242 203 151 131 22 12 8 6 7 3 358 354 352 349 345 345 344 344 338 320 289 230 214 211 210 205 201 197 198 197 196 196 191 191 191 192 190 186 186 187 193 193 196 205
348 331 281 259 247 235 213 198 357 360 358 357 359 357 355 355 353 351 350 348 346 347 345 344 336 311 279 234 217 217 214 207 198 196 200 197 196 193 190 190 191 190 189 189 190 192 191 194 200
8 11 327 279 285 271 239 110 37 357 350 352 352 351 351 353 350 348 348 349 350 354 355 353 347 342 320 273 234 219 215 212 201 199 200 197 193 191 192 192 192 190 191 191 192 195 192 197 199
24 7 337 297 293 287 279 74 47 16 6 2 354 352 352 354 354 354 353 355 355 354 354 353 349 344 335 305 259 232 215 210 205 200 200 195 194 193 194 192 192 191 193 193 194 196 197 200 202